Year,Month,Day,Hour,Minute,Value (Times are PST for temperature in C)
2018,10,21,00,00,9.00
2018,10,21,00,01,9.00
2018,10,21,00,02,9.00
2018,10,21,00,03,9.00
2018,10,21,00,04,9.10
2018,10,21,00,05,9.10
2018,10,21,00,06,9.10
2018,10,21,00,07,9.20
2018,10,21,00,08,9.20
2018,10,21,00,09,9.20
2018,10,21,00,10,9.30
2018,10,21,00,11,9.30
2018,10,21,00,12,9.30
2018,10,21,00,13,9.40
2018,10,21,00,14,9.40
2018,10,21,00,15,9.40
2018,10,21,00,16,9.40
2018,10,21,00,17,9.40
2018,10,21,00,18,9.40
2018,10,21,00,19,9.40
2018,10,21,00,20,9.40
2018,10,21,00,21,9.40
2018,10,21,00,22,9.40
2018,10,21,00,23,9.40
2018,10,21,00,24,9.40
2018,10,21,00,25,9.40
2018,10,21,00,26,9.40
2018,10,21,00,27,9.40
2018,10,21,00,28,9.40
2018,10,21,00,29,9.40
2018,10,21,00,30,9.40
2018,10,21,00,31,9.30
2018,10,21,00,32,9.30
2018,10,21,00,33,9.30
2018,10,21,00,34,9.30
2018,10,21,00,35,9.20
2018,10,21,00,36,9.20
2018,10,21,00,37,9.20
2018,10,21,00,38,9.20
2018,10,21,00,39,9.10
2018,10,21,00,40,9.10
2018,10,21,00,41,9.10
2018,10,21,00,42,9.10
2018,10,21,00,43,9.00
2018,10,21,00,44,9.00
2018,10,21,00,45,9.00
2018,10,21,00,46,9.00
2018,10,21,00,47,9.00
2018,10,21,00,48,9.00
2018,10,21,00,49,9.00
2018,10,21,00,50,9.00
2018,10,21,00,51,9.10
2018,10,21,00,52,9.10
2018,10,21,00,53,9.10
2018,10,21,00,54,9.10
2018,10,21,00,55,9.10
2018,10,21,00,56,9.10
2018,10,21,00,57,9.00
2018,10,21,00,58,9.00
2018,10,21,00,59,9.00
2018,10,21,01,00,9.00
2018,10,21,01,01,8.90
2018,10,21,01,02,8.90
2018,10,21,01,03,8.90
2018,10,21,01,04,8.90
2018,10,21,01,05,8.90
2018,10,21,01,06,8.90
2018,10,21,01,07,8.90
2018,10,21,01,08,8.90
2018,10,21,01,09,8.90
2018,10,21,01,10,8.90
2018,10,21,01,11,8.90
2018,10,21,01,12,9.00
2018,10,21,01,13,9.00
2018,10,21,01,14,9.00
2018,10,21,01,15,8.90
2018,10,21,01,16,8.90
2018,10,21,01,17,8.90
2018,10,21,01,18,8.90
2018,10,21,01,19,8.90
2018,10,21,01,20,8.90
2018,10,21,01,21,8.90
2018,10,21,01,22,8.90
2018,10,21,01,23,8.90
2018,10,21,01,24,8.90
2018,10,21,01,25,9.00
2018,10,21,01,26,9.00
2018,10,21,01,27,9.00
2018,10,21,01,28,9.00
2018,10,21,01,29,9.10
2018,10,21,01,30,9.10
2018,10,21,01,31,9.10
2018,10,21,01,32,9.10
2018,10,21,01,33,9.10
2018,10,21,01,34,9.00
2018,10,21,01,35,9.00
2018,10,21,01,36,9.00
2018,10,21,01,37,8.90
2018,10,21,01,38,8.90
2018,10,21,01,39,8.80
2018,10,21,01,40,8.70
2018,10,21,01,41,8.70
2018,10,21,01,42,8.60
2018,10,21,01,43,8.60
2018,10,21,01,44,8.50
2018,10,21,01,45,8.40
2018,10,21,01,46,8.40
2018,10,21,01,47,8.40
2018,10,21,01,48,8.30
2018,10,21,01,49,8.30
2018,10,21,01,50,8.30
2018,10,21,01,51,8.30
2018,10,21,01,52,8.40
2018,10,21,01,53,8.40
2018,10,21,01,54,8.40
2018,10,21,01,55,8.40
2018,10,21,01,56,8.40
2018,10,21,01,57,8.40
2018,10,21,01,58,8.50
2018,10,21,01,59,8.50
2018,10,21,02,00,8.50
2018,10,21,02,01,8.50
2018,10,21,02,02,8.50
2018,10,21,02,03,8.50
2018,10,21,02,04,8.50
2018,10,21,02,05,8.50
2018,10,21,02,06,8.60
2018,10,21,02,07,8.60
2018,10,21,02,08,8.60
2018,10,21,02,09,8.60
2018,10,21,02,10,8.60
2018,10,21,02,11,8.60
2018,10,21,02,12,8.60
2018,10,21,02,13,8.60
2018,10,21,02,14,8.60
2018,10,21,02,15,8.60
2018,10,21,02,16,8.60
2018,10,21,02,17,8.60
2018,10,21,02,18,8.50
2018,10,21,02,19,8.50
2018,10,21,02,20,8.50
2018,10,21,02,21,8.40
2018,10,21,02,22,8.40
2018,10,21,02,23,8.40
2018,10,21,02,24,8.40
2018,10,21,02,25,8.40
2018,10,21,02,26,8.40
2018,10,21,02,27,8.40
2018,10,21,02,28,8.40
2018,10,21,02,29,8.40
2018,10,21,02,30,8.40
2018,10,21,02,31,8.40
2018,10,21,02,32,8.40
2018,10,21,02,33,8.40
2018,10,21,02,34,8.50
2018,10,21,02,35,8.50
2018,10,21,02,36,8.50
2018,10,21,02,37,8.50
2018,10,21,02,38,8.50
2018,10,21,02,39,8.50
2018,10,21,02,40,8.60
2018,10,21,02,41,8.50
2018,10,21,02,42,8.50
2018,10,21,02,43,8.50
2018,10,21,02,44,8.50
2018,10,21,02,45,8.50
2018,10,21,02,46,8.60
2018,10,21,02,47,8.60
2018,10,21,02,48,8.60
2018,10,21,02,49,8.60
2018,10,21,02,50,8.60
2018,10,21,02,51,8.60
2018,10,21,02,52,8.60
2018,10,21,02,53,8.60
2018,10,21,02,54,8.60
2018,10,21,02,55,8.50
2018,10,21,02,56,8.50
2018,10,21,02,57,8.50
2018,10,21,02,58,8.50
2018,10,21,02,59,8.60
2018,10,21,03,00,8.60
2018,10,21,03,01,8.60
2018,10,21,03,02,8.60
2018,10,21,03,03,8.60
2018,10,21,03,04,8.60
2018,10,21,03,05,8.60
2018,10,21,03,06,8.60
2018,10,21,03,07,8.60
2018,10,21,03,08,8.60
2018,10,21,03,09,8.60
2018,10,21,03,10,8.50
2018,10,21,03,11,8.50
2018,10,21,03,12,8.50
2018,10,21,03,13,8.50
2018,10,21,03,14,8.50
2018,10,21,03,15,8.50
2018,10,21,03,16,8.50
2018,10,21,03,17,8.50
2018,10,21,03,18,8.50
2018,10,21,03,19,8.40
2018,10,21,03,20,8.40
2018,10,21,03,21,8.40
2018,10,21,03,22,8.40
2018,10,21,03,23,8.40
2018,10,21,03,24,8.40
2018,10,21,03,25,8.40
2018,10,21,03,26,8.40
2018,10,21,03,27,8.40
2018,10,21,03,28,8.40
2018,10,21,03,29,8.30
2018,10,21,03,30,8.30
2018,10,21,03,31,8.30
2018,10,21,03,32,8.30
2018,10,21,03,33,8.30
2018,10,21,03,34,8.30
2018,10,21,03,35,8.30
2018,10,21,03,36,8.30
2018,10,21,03,37,8.40
2018,10,21,03,38,8.40
2018,10,21,03,39,8.40
2018,10,21,03,40,8.40
2018,10,21,03,41,8.40
2018,10,21,03,42,8.40
2018,10,21,03,43,8.40
2018,10,21,03,44,8.50
2018,10,21,03,45,8.50
2018,10,21,03,46,8.50
2018,10,21,03,47,8.60
2018,10,21,03,48,8.60
2018,10,21,03,49,8.60
2018,10,21,03,50,8.50
2018,10,21,03,51,8.50
2018,10,21,03,52,8.50
2018,10,21,03,53,8.50
2018,10,21,03,54,8.50
2018,10,21,03,55,8.50
2018,10,21,03,56,8.40
2018,10,21,03,57,8.40
2018,10,21,03,58,8.30
2018,10,21,03,59,8.30
2018,10,21,04,00,8.30
2018,10,21,04,01,8.30
2018,10,21,04,02,8.20
2018,10,21,05,04,7.30
2018,10,21,05,05,7.30
2018,10,21,05,06,7.20
2018,10,21,05,07,7.20
2018,10,21,05,08,7.20
2018,10,21,05,09,7.10
2018,10,21,05,10,7.10
2018,10,21,05,11,7.10
2018,10,21,05,12,7.10
2018,10,21,05,13,7.10
2018,10,21,05,14,7.10
2018,10,21,05,15,7.00
2018,10,21,05,16,7.00
2018,10,21,05,17,7.00
2018,10,21,05,18,6.90
2018,10,21,05,19,6.90
2018,10,21,05,20,6.90
2018,10,21,05,21,6.90
2018,10,21,05,22,6.90
2018,10,21,05,23,6.90
2018,10,21,05,24,6.90
2018,10,21,05,25,6.90
2018,10,21,05,26,6.90
2018,10,21,05,27,6.90
2018,10,21,05,28,6.90
2018,10,21,05,29,6.90
2018,10,21,05,30,7.00
2018,10,21,05,31,7.00
2018,10,21,05,32,7.00
2018,10,21,05,33,7.10
2018,10,21,05,34,7.10
2018,10,21,05,35,7.10
2018,10,21,05,36,7.10
2018,10,21,05,37,7.00
2018,10,21,05,38,7.00
2018,10,21,05,39,7.00
2018,10,21,05,40,7.00
2018,10,21,05,41,7.00
2018,10,21,05,42,6.90
2018,10,21,05,43,7.00
2018,10,21,05,44,7.00
2018,10,21,05,45,7.00
2018,10,21,05,46,7.00
2018,10,21,05,47,7.00
2018,10,21,05,48,7.10
2018,10,21,05,49,7.10
2018,10,21,05,50,7.10
2018,10,21,05,51,7.10
2018,10,21,05,52,7.10
2018,10,21,05,53,7.10
2018,10,21,05,54,7.10
2018,10,21,05,55,7.10
2018,10,21,05,56,7.10
2018,10,21,05,57,7.10
2018,10,21,05,58,7.10
2018,10,21,05,59,7.00
2018,10,21,06,00,7.00
2018,10,21,06,01,7.00
2018,10,21,06,02,7.00
2018,10,21,06,03,7.00
2018,10,21,06,04,7.00
2018,10,21,06,05,7.00
2018,10,21,06,06,7.00
2018,10,21,06,07,6.90
2018,10,21,06,08,6.90
2018,10,21,06,09,6.90
2018,10,21,06,10,6.90
2018,10,21,06,11,6.90
2018,10,21,06,12,6.90
2018,10,21,06,13,6.90
2018,10,21,06,14,6.90
2018,10,21,06,15,6.90
2018,10,21,06,16,6.90
2018,10,21,06,17,6.90
2018,10,21,06,18,7.00
2018,10,21,06,19,7.00
2018,10,21,06,20,7.10
2018,10,21,06,21,7.10
2018,10,21,06,22,7.10
2018,10,21,06,23,7.10
2018,10,21,06,24,7.10
2018,10,21,06,25,7.10
2018,10,21,06,26,7.10
2018,10,21,06,27,7.10
2018,10,21,06,28,7.10
2018,10,21,06,29,7.10
2018,10,21,06,30,7.00
2018,10,21,06,31,7.00
2018,10,21,06,32,6.90
2018,10,21,06,33,6.80
2018,10,21,06,34,6.80
2018,10,21,06,35,6.70
2018,10,21,06,36,6.70
2018,10,21,06,37,6.60
2018,10,21,06,38,6.60
2018,10,21,06,39,6.60
2018,10,21,06,40,6.50
2018,10,21,06,41,6.50
2018,10,21,06,42,6.50
2018,10,21,06,43,6.40
2018,10,21,06,44,6.40
2018,10,21,06,45,6.40
2018,10,21,06,46,6.40
2018,10,21,06,47,6.50
2018,10,21,06,48,6.50
2018,10,21,06,49,6.50
2018,10,21,06,50,6.50
2018,10,21,06,51,6.60
2018,10,21,06,52,6.60
2018,10,21,06,53,6.60
2018,10,21,06,54,6.70
2018,10,21,06,55,6.70
2018,10,21,06,56,6.80
2018,10,21,06,57,6.80
2018,10,21,06,58,6.90
2018,10,21,06,59,6.90
2018,10,21,07,00,7.00
2018,10,21,07,01,7.10
2018,10,21,07,02,7.10
2018,10,21,07,03,7.20
2018,10,21,07,04,7.20
2018,10,21,07,05,7.30
2018,10,21,07,06,7.30
2018,10,21,07,07,7.30
2018,10,21,07,08,7.30
2018,10,21,07,09,7.30
2018,10,21,07,10,7.30
2018,10,21,07,11,7.30
2018,10,21,07,12,7.20
2018,10,21,07,13,7.20
2018,10,21,07,14,7.20
2018,10,21,07,15,7.20
2018,10,21,07,16,7.20
2018,10,21,07,17,7.20
2018,10,21,07,18,7.20
2018,10,21,07,19,7.20
2018,10,21,07,20,7.10
2018,10,21,07,21,7.10
2018,10,21,07,22,7.10
2018,10,21,07,23,7.10
2018,10,21,07,24,7.10
2018,10,21,07,25,7.00
2018,10,21,07,26,7.00
2018,10,21,07,27,7.00
2018,10,21,07,28,7.00
2018,10,21,07,29,7.10
2018,10,21,07,30,7.10
2018,10,21,07,31,7.10
2018,10,21,07,32,7.00
2018,10,21,07,33,7.00
2018,10,21,07,34,6.90
2018,10,21,07,35,6.90
2018,10,21,07,36,6.90
2018,10,21,07,37,6.90
2018,10,21,07,38,7.00
2018,10,21,07,39,7.00
2018,10,21,07,40,7.10
2018,10,21,07,41,7.10
2018,10,21,07,42,7.10
2018,10,21,07,43,7.00
2018,10,21,07,44,7.00
2018,10,21,07,45,6.90
2018,10,21,07,46,6.90
2018,10,21,07,47,6.90
2018,10,21,07,48,6.90
2018,10,21,07,49,6.90
2018,10,21,07,50,6.90
2018,10,21,07,51,6.90
2018,10,21,07,52,7.00
2018,10,21,07,53,7.10
2018,10,21,07,54,7.20
2018,10,21,07,55,7.30
2018,10,21,07,56,7.40
2018,10,21,07,57,7.40
2018,10,21,07,58,7.50
2018,10,21,07,59,7.60
2018,10,21,08,00,7.60
2018,10,21,08,01,7.60
2018,10,21,08,02,7.70
2018,10,21,08,03,7.60
2018,10,21,08,04,7.60
2018,10,21,08,05,7.60
2018,10,21,08,06,7.50
2018,10,21,08,07,7.50
2018,10,21,08,08,7.40
2018,10,21,08,09,7.40
2018,10,21,08,10,7.30
2018,10,21,08,11,7.20
2018,10,21,08,12,7.10
2018,10,21,08,13,7.00
2018,10,21,08,14,6.90
2018,10,21,08,15,6.80
2018,10,21,08,16,6.70
2018,10,21,08,17,6.60
2018,10,21,08,18,6.60
2018,10,21,08,19,6.60
2018,10,21,08,20,6.60
2018,10,21,08,21,6.60
2018,10,21,08,22,6.60
2018,10,21,08,23,6.70
2018,10,21,08,24,6.70
2018,10,21,08,25,6.70
2018,10,21,08,26,6.80
2018,10,21,08,27,6.80
2018,10,21,08,28,6.90
2018,10,21,08,29,6.90
2018,10,21,08,30,7.00
2018,10,21,08,31,7.00
2018,10,21,08,32,7.10
2018,10,21,08,33,7.10
2018,10,21,08,34,7.30
2018,10,21,08,35,7.40
2018,10,21,08,36,7.50
2018,10,21,08,37,7.60
2018,10,21,08,38,7.70
2018,10,21,08,39,7.70
2018,10,21,08,40,7.80
2018,10,21,08,41,7.80
2018,10,21,08,42,7.90
2018,10,21,08,43,8.00
2018,10,21,08,44,8.00
2018,10,21,08,45,8.10
2018,10,21,08,46,8.20
2018,10,21,08,47,8.20
2018,10,21,08,48,8.30
2018,10,21,08,49,8.40
2018,10,21,08,50,8.50
2018,10,21,08,51,8.60
2018,10,21,08,52,8.70
2018,10,21,08,53,8.70
2018,10,21,08,54,8.80
2018,10,21,08,55,8.90
2018,10,21,08,56,9.00
2018,10,21,08,57,9.00
2018,10,21,08,58,9.10
2018,10,21,08,59,9.20
2018,10,21,09,00,9.20
2018,10,21,09,01,9.20
2018,10,21,09,02,9.30
2018,10,21,09,03,9.30
2018,10,21,09,04,9.30
2018,10,21,09,05,9.30
2018,10,21,09,06,9.40
2018,10,21,09,07,9.40
2018,10,21,09,08,9.40
2018,10,21,09,09,9.30
2018,10,21,09,10,9.30
2018,10,21,09,11,9.30
2018,10,21,09,12,9.30
2018,10,21,09,13,9.30
2018,10,21,09,14,9.30
2018,10,21,09,15,9.40
2018,10,21,09,16,9.40
2018,10,21,09,17,9.50
2018,10,21,09,18,9.50
2018,10,21,09,19,9.50
2018,10,21,09,20,9.50
2018,10,21,09,21,9.60
2018,10,21,09,22,9.60
2018,10,21,09,23,9.60
2018,10,21,09,24,9.60
2018,10,21,09,25,9.70
2018,10,21,09,26,9.70
2018,10,21,09,27,9.80
2018,10,21,09,28,9.80
2018,10,21,09,29,9.80
2018,10,21,09,30,9.80
2018,10,21,09,31,9.90
2018,10,21,09,32,9.90
2018,10,21,09,33,10.00
2018,10,21,09,34,10.00
2018,10,21,09,35,10.10
2018,10,21,09,36,10.10
2018,10,21,09,37,10.10
2018,10,21,09,38,10.20
2018,10,21,09,39,10.20
2018,10,21,09,40,10.20
2018,10,21,09,41,10.30
2018,10,21,09,42,10.30
2018,10,21,09,43,10.30
2018,10,21,09,44,10.30
2018,10,21,09,45,10.40
2018,10,21,09,46,10.40
2018,10,21,09,47,10.40
2018,10,21,09,48,10.40
2018,10,21,09,49,10.50
2018,10,21,09,50,10.50
2018,10,21,09,51,10.60
2018,10,21,09,52,10.60
2018,10,21,09,53,10.60
2018,10,21,09,54,10.60
2018,10,21,09,55,10.60
2018,10,21,09,56,10.60
2018,10,21,09,57,10.70
2018,10,21,09,58,10.70
2018,10,21,09,59,10.70
2018,10,21,10,00,10.70
2018,10,21,10,01,10.80
2018,10,21,10,02,10.80
2018,10,21,10,03,10.80
2018,10,21,10,04,10.80
2018,10,21,10,05,10.80
2018,10,21,10,06,10.80
2018,10,21,10,07,10.90
2018,10,21,10,08,10.90
2018,10,21,10,09,10.90
2018,10,21,10,10,10.90
2018,10,21,10,11,10.90
2018,10,21,10,12,11.00
2018,10,21,10,13,11.00
2018,10,21,10,14,11.10
2018,10,21,10,15,11.10
2018,10,21,10,16,11.10
2018,10,21,10,17,11.20
2018,10,21,10,18,11.20
2018,10,21,10,19,11.20
2018,10,21,10,20,11.30
2018,10,21,10,21,11.30
2018,10,21,10,22,11.30
2018,10,21,10,23,11.30
2018,10,21,10,24,11.40
2018,10,21,10,25,11.40
2018,10,21,10,26,11.40
2018,10,21,10,27,11.50
2018,10,21,10,28,11.50
2018,10,21,10,29,11.60
2018,10,21,10,30,11.60
2018,10,21,10,31,11.70
2018,10,21,10,32,11.70
2018,10,21,10,33,11.70
2018,10,21,10,34,11.80
2018,10,21,10,35,11.80
2018,10,21,10,36,11.80
2018,10,21,10,37,11.80
2018,10,21,10,38,11.90
2018,10,21,10,39,11.90
2018,10,21,10,40,11.90
2018,10,21,10,41,11.80
2018,10,21,10,42,11.80
2018,10,21,10,43,11.80
2018,10,21,10,44,11.80
2018,10,21,10,45,11.80
2018,10,21,10,46,11.80
2018,10,21,10,47,11.80
2018,10,21,10,48,11.90
2018,10,21,10,49,11.90
2018,10,21,10,50,11.90
2018,10,21,10,51,11.90
2018,10,21,10,52,11.90
2018,10,21,10,53,12.00
2018,10,21,10,54,12.00
2018,10,21,10,55,12.00
2018,10,21,10,56,12.00
2018,10,21,10,57,12.10
2018,10,21,10,58,12.10
2018,10,21,10,59,12.10
2018,10,21,11,00,12.10
2018,10,21,11,01,12.10
2018,10,21,11,02,12.20
2018,10,21,11,03,12.20
2018,10,21,11,04,12.20
2018,10,21,11,05,12.20
2018,10,21,11,06,12.30
2018,10,21,11,07,12.30
2018,10,21,11,08,12.40
2018,10,21,11,09,12.40
2018,10,21,11,10,12.50
2018,10,21,11,11,12.50
2018,10,21,11,12,12.60
2018,10,21,11,13,12.60
2018,10,21,11,14,12.60
2018,10,21,11,15,12.60
2018,10,21,11,16,12.60
2018,10,21,11,17,12.60
2018,10,21,11,18,12.70
2018,10,21,11,19,12.70
2018,10,21,11,20,12.70
2018,10,21,11,21,12.70
2018,10,21,11,22,12.70
2018,10,21,11,23,12.70
2018,10,21,11,24,12.70
2018,10,21,11,25,12.70
2018,10,21,11,26,12.70
2018,10,21,11,27,12.70
2018,10,21,11,28,12.70
2018,10,21,11,29,12.70
2018,10,21,11,30,12.70
2018,10,21,11,31,12.70
2018,10,21,11,32,12.80
2018,10,21,11,33,12.80
2018,10,21,11,34,12.90
2018,10,21,11,35,13.00
2018,10,21,11,36,13.00
2018,10,21,11,37,13.00
2018,10,21,11,38,12.90
2018,10,21,11,39,12.90
2018,10,21,11,40,12.90
2018,10,21,11,41,12.90
2018,10,21,11,42,12.90
2018,10,21,11,43,12.90
2018,10,21,11,44,12.90
2018,10,21,11,45,13.00
2018,10,21,11,46,13.00
2018,10,21,11,47,13.10
2018,10,21,11,48,13.10
2018,10,21,11,49,13.10
2018,10,21,11,50,13.10
2018,10,21,11,51,13.10
2018,10,21,11,52,13.10
2018,10,21,11,53,13.10
2018,10,21,11,54,13.10
2018,10,21,11,55,13.10
2018,10,21,11,56,13.10
2018,10,21,11,57,13.10
2018,10,21,11,58,13.20
2018,10,21,11,59,13.20
2018,10,21,12,00,13.20
2018,10,21,12,01,13.20
2018,10,21,12,02,13.30
2018,10,21,12,03,13.30
2018,10,21,12,04,13.30
2018,10,21,12,05,13.40
2018,10,21,12,06,13.50
2018,10,21,12,07,13.50
2018,10,21,12,08,13.60
2018,10,21,12,09,13.60
2018,10,21,12,10,13.70
2018,10,21,12,11,13.70
2018,10,21,12,12,13.70
2018,10,21,12,13,13.80
2018,10,21,12,14,13.80
2018,10,21,12,15,13.80
2018,10,21,12,16,13.80
2018,10,21,12,17,13.80
2018,10,21,12,18,13.90
2018,10,21,12,19,13.90
2018,10,21,12,20,14.00
2018,10,21,12,21,14.00
2018,10,21,12,22,14.00
2018,10,21,12,23,14.00
2018,10,21,12,24,14.10
2018,10,21,12,25,14.00
2018,10,21,12,26,14.00
2018,10,21,12,27,14.00
2018,10,21,12,28,14.00
2018,10,21,12,29,14.00
2018,10,21,12,30,14.00
2018,10,21,12,31,14.10
2018,10,21,12,32,14.10
2018,10,21,12,33,14.10
2018,10,21,12,34,14.10
2018,10,21,12,35,14.10
2018,10,21,12,36,14.10
2018,10,21,12,37,14.10
2018,10,21,12,38,14.20
2018,10,21,12,39,14.20
2018,10,21,12,40,14.20
2018,10,21,12,41,14.30
2018,10,21,12,42,14.30
2018,10,21,12,43,14.30
2018,10,21,12,44,14.40
2018,10,21,12,45,14.40
2018,10,21,12,46,14.50
2018,10,21,12,47,14.50
2018,10,21,12,48,14.60
2018,10,21,12,49,14.70
2018,10,21,12,50,14.70
2018,10,21,12,51,14.80
2018,10,21,12,52,14.80
2018,10,21,12,53,15.00
2018,10,21,12,54,15.10
2018,10,21,12,55,15.10
2018,10,21,12,56,15.20
2018,10,21,12,57,15.20
2018,10,21,12,58,15.30
2018,10,21,12,59,15.30
2018,10,21,13,00,15.30
2018,10,21,13,01,15.40
2018,10,21,13,02,15.40
2018,10,21,13,03,15.40
2018,10,21,13,04,15.40
2018,10,21,13,05,15.40
2018,10,21,13,06,15.50
2018,10,21,13,07,15.50
2018,10,21,13,08,15.60
2018,10,21,13,09,15.60
2018,10,21,13,10,15.60
2018,10,21,13,11,15.70
2018,10,21,13,12,15.70
2018,10,21,13,13,15.70
2018,10,21,13,14,15.80
2018,10,21,13,15,15.80
2018,10,21,13,16,15.80
2018,10,21,13,17,15.80
2018,10,21,13,18,15.80
2018,10,21,13,19,15.90
2018,10,21,13,20,15.90
2018,10,21,13,21,15.90
2018,10,21,13,22,15.90
2018,10,21,13,23,15.80
2018,10,21,13,24,15.80
2018,10,21,13,25,15.80
2018,10,21,13,26,15.80
2018,10,21,13,27,15.80
2018,10,21,13,28,15.90
2018,10,21,13,29,15.90
2018,10,21,13,30,15.90
2018,10,21,13,31,15.90
2018,10,21,13,32,15.90
2018,10,21,13,33,15.90
2018,10,21,13,34,15.90
2018,10,21,13,35,15.90
2018,10,21,13,36,16.00
2018,10,21,13,37,16.00
2018,10,21,13,38,16.00
2018,10,21,13,39,16.10
2018,10,21,13,40,16.10
2018,10,21,13,41,16.10
2018,10,21,13,42,16.10
2018,10,21,13,43,16.20
2018,10,21,13,44,16.20
2018,10,21,13,45,16.20
2018,10,21,13,46,16.20
2018,10,21,13,47,16.30
2018,10,21,13,48,16.30
2018,10,21,13,49,16.30
2018,10,21,13,50,16.40
2018,10,21,13,51,16.40
2018,10,21,13,52,16.50
2018,10,21,13,53,16.50
2018,10,21,13,54,16.60
2018,10,21,13,55,16.60
2018,10,21,13,56,16.60
2018,10,21,13,57,16.70
2018,10,21,13,58,16.70
2018,10,21,13,59,16.70
2018,10,21,14,00,16.70
2018,10,21,14,01,16.70
2018,10,21,14,02,16.70
2018,10,21,14,03,16.70
2018,10,21,14,04,16.70
2018,10,21,14,05,16.70
2018,10,21,14,06,16.70
2018,10,21,14,07,16.70
2018,10,21,14,08,16.60
2018,10,21,14,09,16.60
2018,10,21,14,10,16.70
2018,10,21,14,11,16.70
2018,10,21,14,12,16.70
2018,10,21,14,13,16.70
2018,10,21,14,14,16.70
2018,10,21,14,15,16.70
2018,10,21,14,16,16.70
2018,10,21,14,17,16.80
2018,10,21,14,18,16.80
2018,10,21,14,19,16.80
2018,10,21,14,20,16.80
2018,10,21,14,21,16.80
2018,10,21,14,22,16.70
2018,10,21,14,23,16.70
2018,10,21,14,24,16.80
2018,10,21,14,25,16.80
2018,10,21,14,26,16.80
2018,10,21,14,27,16.80
2018,10,21,14,28,16.80
2018,10,21,14,29,16.80
2018,10,21,14,30,16.80
2018,10,21,14,31,16.70
2018,10,21,14,32,16.70
2018,10,21,14,33,16.70
2018,10,21,14,34,16.80
2018,10,21,14,35,16.80
2018,10,21,14,36,16.80
2018,10,21,14,37,16.80
2018,10,21,14,38,16.80
2018,10,21,14,39,16.70
2018,10,21,14,40,16.70
2018,10,21,14,41,16.70
2018,10,21,14,42,16.70
2018,10,21,14,43,16.70
2018,10,21,14,44,16.70
2018,10,21,14,45,16.70
2018,10,21,14,46,16.80
2018,10,21,14,47,16.90
2018,10,21,14,48,17.00
2018,10,21,14,49,17.10
2018,10,21,14,50,17.20
2018,10,21,14,51,17.20
2018,10,21,14,52,17.20
2018,10,21,14,53,17.20
2018,10,21,14,54,17.20
2018,10,21,14,55,17.20
2018,10,21,14,56,17.20
2018,10,21,14,57,17.30
2018,10,21,14,58,17.40
2018,10,21,14,59,17.50
2018,10,21,15,00,17.50
2018,10,21,15,01,17.60
2018,10,21,15,02,17.60
2018,10,21,15,03,17.60
2018,10,21,15,04,17.60
2018,10,21,15,05,17.70
2018,10,21,15,06,17.70
2018,10,21,15,07,17.70
2018,10,21,15,08,17.70
2018,10,21,15,09,17.70
2018,10,21,15,10,17.60
2018,10,21,15,11,17.60
2018,10,21,15,12,17.50
2018,10,21,15,13,17.60
2018,10,21,15,14,17.60
2018,10,21,15,15,17.60
2018,10,21,15,16,17.60
2018,10,21,15,17,17.60
2018,10,21,15,18,17.60
2018,10,21,15,19,17.60
2018,10,21,15,20,17.60
2018,10,21,15,21,17.60
2018,10,21,15,22,17.60
2018,10,21,15,23,17.60
2018,10,21,15,24,17.60
2018,10,21,15,25,17.60
2018,10,21,15,26,17.60
2018,10,21,15,27,17.60
2018,10,21,15,28,17.50
2018,10,21,15,29,17.40
2018,10,21,15,30,17.50
2018,10,21,15,31,17.50
2018,10,21,15,32,17.50
2018,10,21,15,33,17.60
2018,10,21,15,34,17.60
2018,10,21,15,35,17.60
2018,10,21,15,36,17.70
2018,10,21,15,37,17.80
2018,10,21,15,38,17.80
2018,10,21,15,39,17.80
2018,10,21,15,40,17.90
2018,10,21,15,41,17.90
2018,10,21,15,42,17.90
2018,10,21,15,43,17.90
2018,10,21,15,44,17.80
2018,10,21,15,45,17.70
2018,10,21,15,46,17.60
2018,10,21,15,47,17.50
2018,10,21,15,48,17.40
2018,10,21,15,49,17.40
2018,10,21,15,50,17.40
2018,10,21,15,51,17.30
2018,10,21,15,52,17.30
2018,10,21,15,53,17.30
2018,10,21,15,54,17.30
2018,10,21,15,55,17.20
2018,10,21,15,56,17.20
2018,10,21,15,57,17.20
2018,10,21,15,58,17.20
2018,10,21,15,59,17.20
2018,10,21,16,00,17.30
2018,10,21,16,01,17.30
2018,10,21,16,02,17.40
2018,10,21,16,03,17.40
2018,10,21,16,04,17.40
2018,10,21,16,05,17.40
2018,10,21,16,06,17.40
2018,10,21,16,07,17.50
2018,10,21,16,08,17.50
2018,10,21,16,09,17.50
2018,10,21,16,10,17.60
2018,10,21,16,11,17.60
2018,10,21,16,12,17.50
2018,10,21,16,13,17.50
2018,10,21,16,14,17.40
2018,10,21,16,15,17.30
2018,10,21,16,16,17.20
2018,10,21,16,17,17.20
2018,10,21,16,18,17.10
2018,10,21,16,19,17.10
2018,10,21,16,20,17.10
2018,10,21,16,21,17.10
2018,10,21,16,22,17.10
2018,10,21,16,23,17.10
2018,10,21,16,24,17.10
2018,10,21,16,25,17.10
2018,10,21,16,26,17.00
2018,10,21,16,27,17.00
2018,10,21,16,28,17.00
2018,10,21,16,29,17.00
2018,10,21,16,30,17.00
2018,10,21,16,31,17.00
2018,10,21,16,32,17.10
2018,10,21,16,33,17.10
2018,10,21,16,34,17.10
2018,10,21,16,35,17.10
2018,10,21,16,36,17.20
2018,10,21,16,37,17.20
2018,10,21,16,38,17.20
2018,10,21,16,39,17.20
2018,10,21,16,40,17.20
2018,10,21,16,41,17.20
2018,10,21,16,42,17.20
2018,10,21,16,43,17.20
2018,10,21,16,44,17.10
2018,10,21,16,45,17.10
2018,10,21,16,46,17.10
2018,10,21,16,47,17.10
2018,10,21,16,48,17.10
2018,10,21,16,49,17.10
2018,10,21,16,50,17.00
2018,10,21,16,51,17.00
2018,10,21,16,52,16.90
2018,10,21,16,53,16.90
2018,10,21,16,54,16.80
2018,10,21,16,55,16.80
2018,10,21,16,56,16.80
2018,10,21,16,57,16.80
2018,10,21,16,58,16.70
2018,10,21,16,59,16.70
2018,10,21,17,00,16.70
2018,10,21,17,01,16.60
2018,10,21,17,02,16.60
2018,10,21,17,03,16.50
2018,10,21,17,04,16.50
2018,10,21,17,05,16.40
2018,10,21,17,06,16.40
2018,10,21,17,07,16.40
2018,10,21,17,08,16.30
2018,10,21,17,09,16.30
2018,10,21,17,10,16.20
2018,10,21,17,11,16.20
2018,10,21,17,12,16.10
2018,10,21,17,13,16.10
2018,10,21,17,14,16.10
2018,10,21,17,15,16.00
2018,10,21,17,16,15.90
2018,10,21,17,17,15.90
2018,10,21,17,18,15.90
2018,10,21,17,19,15.80
2018,10,21,17,20,15.80
2018,10,21,17,21,15.80
2018,10,21,17,22,15.80
2018,10,21,17,23,15.80
2018,10,21,17,24,15.70
2018,10,21,17,25,15.70
2018,10,21,17,26,15.60
2018,10,21,17,27,15.60
2018,10,21,17,28,15.50
2018,10,21,17,29,15.50
2018,10,21,17,30,15.40
2018,10,21,17,31,15.30
2018,10,21,17,32,15.30
2018,10,21,17,33,15.20
2018,10,21,17,34,15.20
2018,10,21,17,35,15.10
2018,10,21,17,36,15.00
2018,10,21,17,37,15.00
2018,10,21,17,38,14.90
2018,10,21,17,39,14.80
2018,10,21,17,40,14.80
2018,10,21,17,41,14.70
2018,10,21,17,42,14.70
2018,10,21,17,43,14.60
2018,10,21,17,44,14.50
2018,10,21,17,45,14.40
2018,10,21,17,46,14.40
2018,10,21,17,47,14.30
2018,10,21,17,48,14.30
2018,10,21,17,49,14.20
2018,10,21,17,50,14.20
2018,10,21,17,51,14.10
2018,10,21,17,52,14.00
2018,10,21,17,53,14.00
2018,10,21,17,54,13.90
2018,10,21,17,55,13.90
2018,10,21,17,56,13.90
2018,10,21,17,57,13.90
2018,10,21,17,58,13.80
2018,10,21,17,59,13.80
2018,10,21,18,00,13.80
2018,10,21,18,01,13.80
2018,10,21,18,02,13.80
2018,10,21,18,03,13.80
2018,10,21,18,04,13.70
2018,10,21,18,05,13.70
2018,10,21,18,06,13.70
2018,10,21,18,07,13.70
2018,10,21,18,08,13.60
2018,10,21,18,09,13.60
2018,10,21,18,10,13.60
2018,10,21,18,11,13.50
2018,10,21,18,12,13.50
2018,10,21,18,13,13.40
2018,10,21,18,14,13.40
2018,10,21,18,15,13.30
2018,10,21,18,16,13.30
2018,10,21,18,17,13.30
2018,10,21,18,18,13.20
2018,10,21,18,19,13.20
2018,10,21,18,20,13.20
2018,10,21,18,21,13.10
2018,10,21,18,22,13.10
2018,10,21,18,23,13.00
2018,10,21,18,24,13.00
2018,10,21,18,25,12.90
2018,10,21,18,26,12.90
2018,10,21,18,27,12.80
2018,10,21,18,28,12.80
2018,10,21,18,29,12.80
2018,10,21,18,30,12.70
2018,10,21,18,31,12.70
2018,10,21,18,32,12.60
2018,10,21,18,33,12.60
2018,10,21,18,34,12.50
2018,10,21,18,35,12.50
2018,10,21,18,36,12.40
2018,10,21,18,37,12.40
2018,10,21,18,38,12.30
2018,10,21,18,39,12.30
2018,10,21,18,40,12.30
2018,10,21,18,41,12.20
2018,10,21,18,42,12.20